NGS3637 KABQ-KDEN

Flight info

Callsign NGS3637
Flight time 0h 59m
Altitude 33000
Route JEMEZ GNDLA TBARR4
Aircraft E175/M-SDE3GILORVW/S

Departure

Time 2026-05-03 22:10
Airport Albuquerque International Sunport (KABQ)

Arrival

Time 2026-05-03 23:09
Airport Denver International Airport (KDEN)
Time Latitude Longitude Altitude Speed Heading
2026-05-03 21:32 35.04687 -106.61539 5311 ft 0 kts 12°
2026-05-03 21:53 35.04673 -106.61543 5312 ft 4 kts 14°
2026-05-03 21:53 35.04648 -106.61553 5317 ft 4 kts 25°
2026-05-03 21:53 35.04626 -106.61571 5314 ft 4 kts 59°
2026-05-03 21:53 35.04623 -106.61589 5313 ft 1 kts 91°
2026-05-03 21:54 35.04623 -106.61592 5313 ft 0 kts 91°
2026-05-03 21:57 35.04623 -106.61590 5319 ft 1 kts 92°
2026-05-03 21:57 35.04618 -106.61580 5319 ft 2 kts 124°
2026-05-03 21:57 35.04603 -106.61554 5306 ft 6 kts 124°
2026-05-03 21:57 35.04571 -106.61494 5318 ft 10 kts 112°
2026-05-03 21:58 35.04562 -106.61401 5319 ft 12 kts 79°
2026-05-03 21:58 35.04577 -106.61290 5319 ft 12 kts 89°
2026-05-03 21:58 35.04577 -106.61182 5319 ft 15 kts 90°
2026-05-03 21:58 35.04576 -106.61043 5319 ft 18 kts 89°
2026-05-03 21:59 35.04577 -106.61025 5319 ft 0 kts 89°
2026-05-03 22:01 35.04577 -106.61019 5319 ft 4 kts 89°
2026-05-03 22:02 35.04578 -106.60940 5319 ft 15 kts 89°
2026-05-03 22:02 35.04578 -106.60783 5319 ft 19 kts 93°
2026-05-03 22:02 35.04574 -106.60619 5319 ft 19 kts 90°
2026-05-03 22:02 35.04574 -106.60453 5319 ft 19 kts 90°
2026-05-03 22:03 35.04642 -106.60429 5314 ft 14 kts 284°
2026-05-03 22:03 35.04640 -106.60543 5316 ft 12 kts 269°
2026-05-03 22:03 35.04647 -106.60652 5319 ft 15 kts 275°
2026-05-03 22:03 35.04649 -106.60801 5319 ft 20 kts 269°
2026-05-03 22:04 35.04649 -106.60980 5319 ft 22 kts 271°
2026-05-03 22:04 35.04657 -106.61145 5315 ft 16 kts 252°
2026-05-03 22:04 35.04587 -106.61223 5319 ft 12 kts 248°
2026-05-03 22:04 35.04569 -106.61337 5315 ft 16 kts 254°
2026-05-03 22:05 35.04552 -106.61486 5319 ft 20 kts 271°
2026-05-03 22:05 35.04550 -106.61672 5319 ft 24 kts 269°
2026-05-03 22:05 35.04554 -106.61882 5316 ft 26 kts 269°
2026-05-03 22:05 35.04557 -106.62064 5319 ft 15 kts 269°
2026-05-03 22:06 35.04557 -106.62080 5319 ft 0 kts 266°
2026-05-03 22:07 35.04557 -106.62082 5319 ft 1 kts 265°
2026-05-03 22:07 35.04549 -106.62115 5316 ft 7 kts 240°
2026-05-03 22:08 35.04525 -106.62136 5318 ft 0 kts 195°
2026-05-03 22:08 35.04525 -106.62137 5318 ft 0 kts 195°
2026-05-03 22:09 35.04519 -106.62138 5317 ft 2 kts 189°
2026-05-03 22:09 35.04485 -106.62139 5316 ft 9 kts 181°
2026-05-03 22:09 35.04435 -106.62086 5314 ft 13 kts 97°
2026-05-03 22:10 35.04432 -106.61336 5318 ft 100 kts 92°
2026-05-03 22:10 35.04421 -106.60258 5331 ft 150 kts 91°
2026-05-03 22:10 35.04423 -106.58893 5626 ft 175 kts 93°
2026-05-03 22:10 35.04408 -106.57343 6303 ft 188 kts 92°
2026-05-03 22:11 35.04369 -106.55733 6921 ft 197 kts 90°
2026-05-03 22:11 35.04430 -106.53959 7367 ft 223 kts 80°
2026-05-03 22:11 35.04879 -106.52039 8066 ft 246 kts 61°
2026-05-03 22:11 35.05958 -106.50413 9168 ft 242 kts 36°
2026-05-03 22:12 35.07406 -106.49447 9940 ft 240 kts 12°
2026-05-03 22:12 35.09030 -106.49282 10511 ft 239 kts 349°
2026-05-03 22:12 35.10598 -106.49778 11341 ft 230 kts 336°
2026-05-03 22:12 35.11978 -106.50793 11838 ft 232 kts 311°
2026-05-03 22:13 35.12951 -106.52303 12775 ft 222 kts 304°
2026-05-03 22:13 35.13906 -106.53816 13359 ft 233 kts 306°
2026-05-03 22:13 35.14962 -106.55480 13468 ft 262 kts 304°
2026-05-03 22:13 35.16059 -106.57346 13499 ft 277 kts 302°
2026-05-03 22:14 35.17156 -106.59318 13649 ft 283 kts 301°
2026-05-03 22:14 35.18256 -106.61331 13816 ft 286 kts 301°
2026-05-03 22:14 35.19355 -106.63360 13972 ft 287 kts 301°
2026-05-03 22:14 35.20437 -106.65375 14156 ft 288 kts 301°
2026-05-03 22:15 35.21523 -106.67419 14363 ft 288 kts 300°
2026-05-03 22:15 35.22601 -106.69473 14587 ft 288 kts 300°
2026-05-03 22:15 35.23749 -106.71490 14837 ft 295 kts 309°
2026-05-03 22:15 35.25401 -106.73114 15163 ft 315 kts 322°
2026-05-03 22:16 35.27291 -106.74593 15515 ft 330 kts 323°
2026-05-03 22:16 35.29277 -106.76109 15882 ft 342 kts 323°
2026-05-03 22:16 35.31329 -106.77661 16265 ft 350 kts 324°
2026-05-03 22:16 35.33380 -106.79207 16795 ft 350 kts 324°
2026-05-03 22:17 35.35447 -106.80766 17558 ft 348 kts 323°
2026-05-03 22:17 35.37509 -106.82323 18327 ft 348 kts 323°
2026-05-03 22:17 35.39558 -106.83865 18992 ft 347 kts 323°
2026-05-03 22:17 35.41640 -106.85399 19690 ft 349 kts 326°
2026-05-03 22:18 35.43942 -106.86340 20379 ft 355 kts 344°
2026-05-03 22:18 35.46388 -106.86765 21162 ft 355 kts 345°
2026-05-03 22:18 35.48829 -106.87151 21946 ft 353 kts 345°
2026-05-03 22:18 35.51255 -106.87531 22739 ft 350 kts 345°
2026-05-03 22:19 35.53672 -106.87910 23423 ft 351 kts 345°
2026-05-03 22:19 35.56061 -106.88285 24004 ft 351 kts 344°
2026-05-03 22:19 35.58485 -106.88662 24575 ft 351 kts 344°
2026-05-03 22:19 35.60913 -106.89039 25158 ft 351 kts 344°
2026-05-03 22:20 35.63348 -106.89418 25620 ft 355 kts 343°
2026-05-03 22:20 35.65817 -106.89800 26087 ft 359 kts 343°
2026-05-03 22:20 35.68301 -106.90181 26565 ft 361 kts 343°
2026-05-03 22:20 35.70798 -106.90561 27055 ft 364 kts 343°
2026-05-03 22:21 35.73314 -106.90940 27555 ft 366 kts 343°
2026-05-03 22:21 35.75825 -106.91319 28061 ft 367 kts 343°
2026-05-03 22:21 35.78350 -106.91702 28611 ft 368 kts 343°
2026-05-03 22:21 35.80891 -106.92087 29127 ft 368 kts 343°
2026-05-03 22:22 35.83433 -106.92469 29662 ft 368 kts 343°
2026-05-03 22:22 35.85979 -106.92849 30183 ft 368 kts 342°
2026-05-03 22:22 35.88512 -106.93227 30643 ft 367 kts 342°
2026-05-03 22:22 35.91047 -106.93604 31110 ft 366 kts 342°
2026-05-03 22:23 35.93589 -106.93874 31582 ft 374 kts 349°
2026-05-03 22:23 35.96178 -106.93556 32069 ft 381 kts 356°
2026-05-03 22:23 35.98794 -106.93076 32589 ft 378 kts 356°
2026-05-03 22:23 36.01388 -106.92568 33021 ft 378 kts 356°
2026-05-03 22:24 36.04040 -106.92045 33048 ft 390 kts 356°
2026-05-03 22:24 36.09508 -106.90944 33108 ft 409 kts 357°
2026-05-03 22:24 36.12366 -106.90373 32937 ft 422 kts 358°
2026-05-03 22:25 36.15300 -106.89783 33002 ft 430 kts 358°
2026-05-03 22:25 36.21226 -106.88564 32985 ft 438 kts 358°
2026-05-03 22:26 36.27248 -106.87358 33019 ft 439 kts 358°
2026-05-03 22:26 36.33288 -106.86146 32968 ft 439 kts 358°
2026-05-03 22:27 36.39318 -106.84928 32998 ft 440 kts 358°
2026-05-03 22:27 36.45315 -106.83709 32991 ft 440 kts 359°
2026-05-03 22:28 36.51363 -106.82509 33019 ft 440 kts 359°
2026-05-03 22:28 36.57412 -106.81264 32995 ft 439 kts 359°
2026-05-03 22:29 36.63457 -106.80045 33015 ft 440 kts 358°
2026-05-03 22:29 36.69443 -106.78875 32980 ft 437 kts 358°
2026-05-03 22:30 36.75475 -106.77609 33036 ft 441 kts 360°
2026-05-03 22:30 36.81528 -106.76157 33053 ft 446 kts
2026-05-03 22:31 36.87566 -106.74319 33035 ft 446 kts
2026-05-03 22:31 36.93562 -106.72622 33054 ft 445 kts
2026-05-03 22:32 36.99592 -106.70943 33050 ft 445 kts
2026-05-03 22:32 37.05623 -106.69249 33062 ft 443 kts
2026-05-03 22:33 37.11629 -106.67551 33087 ft 442 kts
2026-05-03 22:33 37.17645 -106.65849 33094 ft 442 kts
2026-05-03 22:34 37.23600 -106.64150 33044 ft 442 kts
2026-05-03 22:34 37.29598 -106.62513 33084 ft 442 kts
2026-05-03 22:35 37.35593 -106.60754 33084 ft 442 kts
2026-05-03 22:35 37.40572 -106.59362 33092 ft 441 kts
2026-05-03 22:36 37.47520 -106.57394 33117 ft 441 kts
2026-05-03 22:36 37.53530 -106.55723 33100 ft 441 kts
2026-05-03 22:37 37.58517 -106.54311 33124 ft 442 kts
2026-05-03 22:37 37.64527 -106.52555 33114 ft 442 kts
2026-05-03 22:38 37.71502 -106.50564 33131 ft 442 kts
2026-05-03 22:38 37.77504 -106.48865 33131 ft 442 kts
2026-05-03 22:39 37.82491 -106.47458 33108 ft 441 kts
2026-05-03 22:39 37.88480 -106.45763 33078 ft 442 kts
2026-05-03 22:40 37.95446 -106.43777 33066 ft 441 kts
2026-05-03 22:40 38.00460 -106.42358 33015 ft 440 kts
2026-05-03 22:41 38.06395 -106.40653 33016 ft 441 kts
2026-05-03 22:41 38.12365 -106.38952 33017 ft 441 kts
2026-05-03 22:42 38.18340 -106.37249 33016 ft 440 kts
2026-05-03 22:42 38.24308 -106.35524 33012 ft 439 kts
2026-05-03 22:43 38.30222 -106.33800 32982 ft 437 kts
2026-05-03 22:43 38.36135 -106.32115 32999 ft 438 kts
2026-05-03 22:44 38.42073 -106.30370 33020 ft 437 kts
2026-05-03 22:44 38.47878 -106.28657 32984 ft 419 kts
2026-05-03 22:45 38.53599 -106.26998 33086 ft 431 kts
2026-05-03 22:45 38.59497 -106.25280 33030 ft 436 kts
2026-05-03 22:46 38.65281 -106.22785 33049 ft 454 kts 27°
2026-05-03 22:46 38.67683 -106.20099 33096 ft 464 kts 43°
2026-05-03 22:46 38.69783 -106.16940 33103 ft 467 kts 46°
2026-05-03 22:47 38.73852 -106.10546 33107 ft 466 kts 46°
2026-05-03 22:47 38.75861 -106.07423 33056 ft 448 kts 45°
2026-05-03 22:47 38.77833 -106.04379 33037 ft 440 kts 45°
2026-05-03 22:47 38.79778 -106.01383 33155 ft 435 kts 45°
2026-05-03 22:48 38.81728 -105.98394 33157 ft 437 kts 45°
2026-05-03 22:48 38.85620 -105.92412 32798 ft 437 kts 45°
2026-05-03 22:48 38.87565 -105.89419 32685 ft 436 kts 45°
2026-05-03 22:49 38.89478 -105.86469 32165 ft 437 kts 45°
2026-05-03 22:49 38.91404 -105.83484 31813 ft 423 kts 45°
2026-05-03 22:49 38.93232 -105.80612 31610 ft 409 kts 46°
2026-05-03 22:49 38.95002 -105.77801 31167 ft 401 kts 46°
2026-05-03 22:50 38.96789 -105.74951 30395 ft 419 kts 47°
2026-05-03 22:50 38.98647 -105.71988 29562 ft 431 kts 47°
2026-05-03 22:50 39.00537 -105.68965 28586 ft 435 kts 48°
2026-05-03 22:50 39.02410 -105.65958 27640 ft 436 kts 48°
2026-05-03 22:51 39.04284 -105.62934 26738 ft 430 kts 48°
2026-05-03 22:51 39.06134 -105.59942 25827 ft 424 kts 48°
2026-05-03 22:51 39.07950 -105.57005 25066 ft 417 kts 49°
2026-05-03 22:51 39.09740 -105.54108 24533 ft 412 kts 49°
2026-05-03 22:52 39.11520 -105.51230 23996 ft 409 kts 49°
2026-05-03 22:52 39.13285 -105.48374 23397 ft 406 kts 49°
2026-05-03 22:52 39.15024 -105.45561 22700 ft 398 kts 49°
2026-05-03 22:52 39.16728 -105.42798 22048 ft 390 kts 49°
2026-05-03 22:53 39.18406 -105.40071 21439 ft 385 kts 50°
2026-05-03 22:53 39.20021 -105.37391 20862 ft 383 kts 50°
2026-05-03 22:53 39.21644 -105.34684 20282 ft 379 kts 50°
2026-05-03 22:53 39.23247 -105.32011 19770 ft 375 kts 50°
2026-05-03 22:54 39.24828 -105.29378 19268 ft 364 kts 51°
2026-05-03 22:54 39.26347 -105.26845 18734 ft 349 kts 50°
2026-05-03 22:54 39.27807 -105.24406 18259 ft 338 kts 51°
2026-05-03 22:54 39.29229 -105.22024 17777 ft 333 kts 51°
2026-05-03 22:55 39.30645 -105.19657 17319 ft 338 kts 51°
2026-05-03 22:55 39.32097 -105.17253 16852 ft 336 kts 49°
2026-05-03 22:55 39.33330 -105.14783 16371 ft 335 kts 65°
2026-05-03 22:55 39.33998 -105.11918 15981 ft 331 kts 79°
2026-05-03 22:56 39.34152 -105.08984 15652 ft 326 kts 92°
2026-05-03 22:56 39.33794 -105.06111 15328 ft 323 kts 106°
2026-05-03 22:56 39.32946 -105.03437 15021 ft 322 kts 119°
2026-05-03 22:56 39.31655 -105.01086 14728 ft 322 kts 133°
2026-05-03 22:57 39.29991 -104.99165 14436 ft 320 kts 142°
2026-05-03 22:57 39.28493 -104.97051 14111 ft 322 kts 120°
2026-05-03 22:57 39.27813 -104.94352 13797 ft 325 kts 94°
2026-05-03 22:57 39.27890 -104.91460 13509 ft 321 kts 83°
2026-05-03 22:58 39.28326 -104.88671 13183 ft 315 kts 69°
2026-05-03 22:58 39.29335 -104.86194 12855 ft 310 kts 51°
2026-05-03 22:58 39.30838 -104.84242 12530 ft 306 kts 34°
2026-05-03 22:58 39.32698 -104.82972 12221 ft 301 kts 16°
2026-05-03 22:59 39.34728 -104.82489 11904 ft 289 kts
2026-05-03 22:59 39.36621 -104.81954 11544 ft 274 kts 25°
2026-05-03 22:59 39.38025 -104.80398 11348 ft 263 kts 55°
2026-05-03 22:59 39.38581 -104.78219 11145 ft 257 kts 88°
2026-05-03 23:00 39.38467 -104.75957 11001 ft 258 kts 86°
2026-05-03 23:00 39.38572 -104.73611 10799 ft 263 kts 85°
2026-05-03 23:00 39.38659 -104.71241 10561 ft 263 kts 86°
2026-05-03 23:00 39.38837 -104.68908 10265 ft 259 kts 71°
2026-05-03 23:01 39.39680 -104.66909 9973 ft 251 kts 43°
2026-05-03 23:01 39.41015 -104.65577 10072 ft 242 kts 21°
2026-05-03 23:01 39.42647 -104.65163 10117 ft 241 kts 358°
2026-05-03 23:01 39.44306 -104.65137 10145 ft 244 kts 358°
2026-05-03 23:02 39.45988 -104.65352 10036 ft 244 kts 337°
2026-05-03 23:02 39.47491 -104.66271 9925 ft 235 kts 339°
2026-05-03 23:02 39.49125 -104.66498 10019 ft 242 kts
2026-05-03 23:02 39.50816 -104.66352 9990 ft 243 kts 358°
2026-05-03 23:03 39.52488 -104.66408 9980 ft 240 kts 355°
2026-05-03 23:03 39.54165 -104.66430 9971 ft 242 kts 358°
2026-05-03 23:03 39.55852 -104.66363 9966 ft 240 kts 357°
2026-05-03 23:03 39.57538 -104.66354 9982 ft 242 kts 356°
2026-05-03 23:04 39.59217 -104.66347 9968 ft 242 kts 357°
2026-05-03 23:04 39.60869 -104.66315 9995 ft 239 kts 357°
2026-05-03 23:04 39.62535 -104.66294 9655 ft 239 kts 357°
2026-05-03 23:04 39.64156 -104.66282 9138 ft 233 kts 357°
2026-05-03 23:05 39.65768 -104.66260 8758 ft 229 kts 356°
2026-05-03 23:05 39.67328 -104.66240 8454 ft 219 kts 357°
2026-05-03 23:05 39.68821 -104.66219 8161 ft 208 kts 356°
2026-05-03 23:05 39.70187 -104.66205 7903 ft 186 kts 356°
2026-05-03 23:06 39.71415 -104.66192 7659 ft 167 kts 355°
2026-05-03 23:06 39.72530 -104.66179 7451 ft 154 kts 355°
2026-05-03 23:06 39.73569 -104.66167 7254 ft 146 kts 355°
2026-05-03 23:06 39.74553 -104.66156 7086 ft 144 kts 356°
2026-05-03 23:07 39.75550 -104.66141 6911 ft 143 kts 355°
2026-05-03 23:07 39.76556 -104.66133 6751 ft 146 kts 356°
2026-05-03 23:07 39.77582 -104.66116 6537 ft 150 kts 354°
2026-05-03 23:07 39.78610 -104.66106 6381 ft 149 kts 358°
2026-05-03 23:08 39.79635 -104.66093 6165 ft 144 kts 355°
2026-05-03 23:08 39.80637 -104.66080 5932 ft 145 kts 355°
2026-05-03 23:08 39.81649 -104.66065 5759 ft 151 kts 356°
2026-05-03 23:08 39.82671 -104.66047 5525 ft 148 kts 353°
2026-05-03 23:09 39.83689 -104.66043 5370 ft 143 kts 354°
2026-05-03 23:09 39.84575 -104.66034 5364 ft 111 kts
2026-05-03 23:09 39.85143 -104.66057 5361 ft 55 kts 341°
2026-05-03 23:09 39.85291 -104.66159 5364 ft 4 kts 302°
2026-05-03 23:10 39.85288 -104.66214 5364 ft 12 kts 257°
2026-05-03 23:10 39.85290 -104.66362 5364 ft 22 kts 276°
2026-05-03 23:10 39.85289 -104.66593 5364 ft 30 kts 265°
2026-05-03 23:10 39.85293 -104.66843 5364 ft 26 kts 271°
2026-05-03 23:11 39.85274 -104.67059 5364 ft 23 kts 271°
2026-05-03 23:11 39.85275 -104.67269 5364 ft 23 kts 268°
2026-05-03 23:11 39.85276 -104.67417 5364 ft 5 kts 271°
2026-05-03 23:11 39.85278 -104.67474 5364 ft 7 kts 279°
2026-05-03 23:12 39.85297 -104.67510 5363 ft 1 kts 343°
2026-05-03 23:12 39.85308 -104.67512 5364 ft 1 kts 354°
2026-05-03 23:12 39.85321 -104.67513 5364 ft 2 kts 358°
2026-05-03 23:12 39.85330 -104.67514 5364 ft 1 kts 360°
2026-05-03 23:13 39.85332 -104.67514 5362 ft 0 kts